Location: D�derode
(51.8092°N, 10.1065°E)
Time: 04:10:10
(UTC+00:00)

Cosmos 1869 Rocket - Pass Details

Date: 16 April 2021
Orbit: 604 x 634 km, 82.5° (Epoch: 11 May)

Event Time Altitude Azimuth Distance (km) Brightness Sun altitude
Rises 00:23:56 0° 349° (N) 2,911 7.9 -26.5°
Reaches altitude 10° 00:26:11 10° 350° (N) 1,995 6.9 -26.4°
Enters shadow 00:29:58 64° 0° (N) 683 3.9 -26.2°
